sat.trackr.live / text

‹ back to catalog

SUPERVIEW NEO-1 03

NORAD 63125 · 2025-040A

PAYLOAD ACTIVE UNKNOWN

§ Identity

Operator
Country
PRC
Launch date
2025-02-27
Launch site
JSC
Launch vehicle
Mass (kg)
RCS (m²)

External: N2YO · Heavens-Above · Gunter

§ Orbital elements

Epoch: 2026-05-24T17:23:37.941216Z

Period
94.64 min
Inclination
97.3477°
Eccentricity
0.0001041
Mean motion
15.21576748 rev/d
Perigee alt
500.4 km
Apogee alt
501.8 km
Semi-major
6,879.2 km
B*
8.1787e-6
RAAN
259.6933°
Arg perigee
99.9199°
Mean anomaly
260.2155°
Rev number
6,861

§ Raw data

SUPERVIEW NEO-1 031 63125U 25040A   26144.72474469  .00000117  00000+0  81787-5 0  99922 63125  97.3477 259.6933 0001041  99.9199 260.2155 15.21576748 68613

JSON: /api/v1/satellites/63125 · /tle

For live sub-satellite position, see the globe view (requires WebGL).

§ Visibility from observer

Set your observer location to see the next 7 days of passes ≥ 10°. The values pass through the URL so the page stays shareable.

No JS? Fill the form by hand. The geolocation button needs JavaScript.